Location: Bothwell
(42.3833°S, 147.0000°E)
Time: 22:40:59
(UTC+11:00)

CUTE-I - Pass Details

Date: 01 October 2022
Orbit: 810 x 823 km, 98.7° (Epoch: 30 November)

Event Time Altitude Azimuth Distance (km) Brightness Sun altitude
Rises 04:21:27 0° 55° (NE) 3,336 ? -16.1°
Reaches altitude 10° 04:24:15 10° 69° (ENE) 2,415 ? -15.6°
Maximum altitude 04:28:15 22° 118° (ESE) 1,737 ? -14.9°
Drops below altitude 10° 04:32:17 10° 166° (SSE) 2,442 ? -14.2°
Sets 04:35:07 0° 180° (S) 3,385 ? -13.7°
